Ellensburg, WA

3:05 AM PDT on June 26, 2017 (GMT -0700)
Bowers

Weather History for KELN - June, 2013

Change the Weather History Date:

Monday, June 17, 2013

  Actual Average (KYKM) Record (KYKM)
Temperature  
Mean Temperature 72 °F -  
Max Temperature 84 °F 81 °F 102 °F (1961)
Min Temperature 61 °F 48 °F 36 °F (1991)
Cooling Degree Days 6    
Growing Degree Days 22 (Base 50)    
Moisture  
Dew Point 48 °F    
Average Humidity 48    
Maximum Humidity 67    
Minimum Humidity 24    
Precipitation  
Precipitation 0.02 in - - ()
Sea Level Pressure  
Sea Level Pressure 29.91 in    
Wind  
Wind Speed 13 mph (NW)    
Max Wind Speed 20 mph    
Max Gust Speed 26 mph    
Visibility 10 miles    
Events Rain    
Averages and records for this station are not official NWS values.
T = Trace of Precipitation, MM = Missing Value Source: NWS Daily Summary

Daily Weather History Graph

Daily Weather History Graph

Search for Another Location

Airport or City:

Trip Planner

Search our weather history database for the weather conditions in past years. The results will help you decide how hot, cold, wet, or windy it might be!

Date:

Astronomy

Jun. 17, 2013 Rise Set
Actual Time 5:06 AM PDT 9:00 PM PDT
Civil Twilight 4:26 AM PDT 9:39 PM PDT
Nautical Twilight 3:31 AM PDT 10:34 PM PDT
Astronomical Twilight 2:09 AM PDT 11:57 PM PDT
Moon 2:25 PM PDT (6/17) 1:06 AM PDT (6/17)
Length of Visible Light 17h 13m
Length of Day
15h 53m
First Quarter, 61% of the Moon is Illuminated
Jun 17
First Quarter
Jun 23
Full
Jun 29
Last Quarter
Jul 8
New
Jul 15
First Quarter

Hourly Weather History & Observations

Time (PDT) Temp. Dew Point Humidity Pressure Visibility Wind Dir Wind Speed Gust Speed Precip Events Conditions
12:53 AM 63.0 °F 52.0 °F 67% 29.96 in 10.0 mi NNW 19.6 mph 26.5 mph 0.00 in Rain Light Rain
1:53 AM 63.0 °F 51.1 °F 65% 29.97 in 10.0 mi NW 16.1 mph - 0.00 in   Partly Cloudy
2:53 AM 62.1 °F 50.0 °F 65% 29.96 in 10.0 mi NW 15.0 mph - N/A   Clear
3:53 AM 62.1 °F 50.0 °F 65% 29.95 in 10.0 mi NW 11.5 mph - N/A   Clear
4:53 AM 61.0 °F 50.0 °F 67% 29.95 in 10.0 mi NW 13.8 mph - N/A   Clear
5:53 AM 61.0 °F 48.9 °F 64% 29.96 in 10.0 mi NW 13.8 mph - N/A   Clear
6:53 AM 61.0 °F 48.9 °F 64% 29.98 in 10.0 mi NW 12.7 mph - N/A   Clear
7:53 AM 64.0 °F 50.0 °F 60% 29.99 in 10.0 mi NW 12.7 mph - N/A   Clear
8:53 AM 69.1 °F 48.9 °F 49% 29.97 in 10.0 mi NW 13.8 mph - N/A   Clear
9:53 AM 73.0 °F 48.0 °F 41% 29.95 in 10.0 mi NW 15.0 mph - N/A   Clear
10:53 AM 75.0 °F 43.0 °F 32% 29.94 in 10.0 mi Variable 4.6 mph 17.3 mph N/A   Clear
11:53 AM 79.0 °F 46.0 °F 31% 29.94 in 10.0 mi NW 12.7 mph - N/A   Clear
12:53 PM 80.1 °F 44.1 °F 28% 29.93 in 10.0 mi NW 6.9 mph - N/A   Clear
1:53 PM 81.0 °F 41.0 °F 24% 29.90 in 10.0 mi Calm Calm - N/A   Clear
2:53 PM 80.1 °F 41.0 °F 25% 29.89 in 10.0 mi NW 4.6 mph - N/A   Mostly Cloudy
3:53 PM 78.1 °F 45.0 °F 31% 29.88 in 10.0 mi WNW 15.0 mph - N/A   Partly Cloudy
4:53 PM 81.0 °F 46.0 °F 29% 29.85 in 10.0 mi WNW 13.8 mph 20.7 mph N/A   Clear
5:53 PM 82.0 °F 45.0 °F 27% 29.83 in 10.0 mi WNW 8.1 mph - N/A   Clear
6:53 PM 77.0 °F 48.0 °F 36% 29.82 in 10.0 mi WNW 8.1 mph - N/A   Mostly Cloudy
7:53 PM 69.1 °F 51.1 °F 53% 29.84 in 10.0 mi Calm Calm - 0.02 in Rain Light Rain
8:53 PM 66.9 °F 51.1 °F 57% 29.86 in 10.0 mi Calm Calm - 0.00 in   Partly Cloudy
9:53 PM 66.0 °F 50.0 °F 56% 29.87 in 10.0 mi WNW 5.8 mph - N/A   Mostly Cloudy
10:53 PM 66.0 °F 48.9 °F 54% 29.87 in 10.0 mi NW 15.0 mph - N/A   Clear
11:53 PM 63.0 °F 48.9 °F 60% 29.88 in 10.0 mi NW 16.1 mph - N/A   Partly Cloudy